Location: Lhota
(50.0887°N, 14.0116°E)
Time: 10:37:13
(UTC+00:00)

CENTAUR R/B - Pass Details

Date: 19 May 2025
Orbit: 644 x 1537 km, 63.4° (Epoch: 23 June)

Event Time Altitude Azimuth Distance (km) Brightness Sun altitude
Rises 23:13:41 0° 316° (NW) 4,132 6.4 -19.9°
Reaches altitude 10° 23:16:16 10° 315° (NW) 3,275 5.8 -19.8°
Maximum altitude 23:24:27 74° 233° (SW) 1,487 3.2 -19.7°
Enters shadow 23:31:32 19° 152° (SSE) 2,999 4.6 -19.6°
